DW6888 Weather Reports


time (UTC)temp
C
wind
direction
speed
KPH
gust
KPH
rain 1hr
cm
rain 24hr
cm
rain mn
cm
humidity
%
barometer
mb
20260510175804 26 143 6.4 16.1 0.00 3.25 0.03 77 1015.9
20260510174805 26 138 6.4 12.9 0.00 3.25 0.03 78 1016.1
20260510174304 26 138 6.4 12.9 0.00 3.25 0.03 76 1016.2
20260510173804 27 106 4.8 11.3 0.00 3.25 0.03 75 1016.2
20260510173305 27 114 4.8 12.9 0.00 3.25 0.03 75 1016.0
20260510172805 27 78 4.8 11.3 0.00 3.25 0.03 74 1016.0
20260510172306 26 109 4.8 11.3 0.00 3.25 0.03 75 1016.1
20260510171805 26 128 4.8 9.7 0.00 3.25 0.03 75 1016.2
20260510171304 26 140 4.8 12.9 0.00 3.25 0.03 75 1016.2
20260510170804 26 97 4.8 16.1 0.00 3.25 0.03 74 1016.4
20260510170304 27 103 4.8 14.5 0.00 3.25 0.03 75 1016.3
20260510165805 27 132 4.8 14.5 0.00 3.25 0.03 75 1016.4
20260510165306 27 117 4.8 9.7 0.00 3.25 0.03 75 1016.4
20260510164305 27 130 3.2 8.0 0.00 3.25 0.03 75 1016.3
20260510163305 27 102 4.8 9.7 0.00 3.25 0.03 76 1016.2
20260510162804 27 131 4.8 11.3 0.00 3.25 0.03 76 1016.1
20260510162306 26 109 3.2 8.0 0.00 3.25 0.03 77 1016.1
20260510161804 26 74 4.8 14.5 0.00 3.25 0.03 78 1016.1
20260510161304 26 119 4.8 11.3 0.00 3.25 0.03 78 1016.2
20260510160805 26 73 4.8 9.7 0.00 3.25 0.03 79 1016.1
20260510160305 26 79 6.4 12.9 0.00 3.25 0.03 78 1016.1
20260510155306 25 98 4.8 8.0 0.00 3.25 0.03 80 1016.2
20260510154804 25 110 4.8 12.9 0.00 3.25 0.03 81 1016.2
20260510154304 25 78 4.8 9.7 0.00 3.25 0.03 81 1016.2
20260510152804 24 38 6.4 12.9 0.00 3.25 0.03 85 1016.1
20260510152307 24 16 6.4 9.7 0.00 3.25 0.03 85 1016.2
20260510151804 24 52 4.8 9.7 0.00 3.25 0.03 85 1016.2
20260510151305 24 32 4.8 9.7 0.00 3.25 0.03 86 1016.2
20260510150805 23 84 3.2 9.7 0.00 3.25 0.03 89 1016.1
20260510150304 23 67 6.4 11.3 0.00 3.25 0.03 92 1016.1
20260510145804 23 69 6.4 12.9 0.00 3.25 0.03 92 1016.1
20260510145306 23 40 3.2 9.7 0.00 3.25 0.03 93 1016.1
20260510144804 22 64 3.2 4.8 0.00 3.25 0.03 93 1016.2
20260510144305 22 74 4.8 11.3 0.00 3.25 0.03 93 1016.2
20260510143804 22 53 4.8 14.5 0.00 3.25 0.03 93 1016.2
20260510143304 22 73 8.0 11.3 0.00 3.25 0.03 93 1016.2
20260510142805 22 70 4.8 9.7 0.00 3.25 0.03 93 1016.0
20260510142306 22 83 8.0 12.9 0.00 3.25 0.03 94 1016.0
20260510140305 21 46 4.8 9.7 0.00 3.25 0.03 94 1016.1
20260510135804 21 78 3.2 11.3 0.00 3.25 0.03 94 1016.1
20260510135306 21 93 3.2 8.0 0.00 3.25 0.03 94 1016.0
20260510134804 21 61 4.8 9.7 0.00 3.25 0.03 94 1016.0
20260510133805 21 69 3.2 8.0 0.00 3.25 0.03 94 1016.1
20260510133304 21 56 3.2 8.0 0.00 3.25 0.03 94 1016.1
20260510132805 21 38 3.2 8.0 0.00 3.25 0.03 94 1016.0
20260510132306 21 78 3.2 4.8 0.00 3.25 0.03 94 1015.9
20260510131805 21 44 4.8 9.7 0.00 3.25 0.03 94 1015.8
20260510131304 21 98 3.2 8.0 0.00 3.25 0.03 94 1015.7
20260510130805 21 49 3.2 8.0 0.00 3.25 0.03 94 1015.6
20260510130304 21 56 4.8 9.7 0.00 3.25 0.03 94 1015.5
20260510125804 21 61 3.2 8.0 0.00 3.25 0.03 94 1015.4
20260510125307 21 94 4.8 8.0 0.00 3.25 0.03 95 1015.3
20260510123804 20 86 1.6 3.2 0.00 3.25 0.03 95 1015.1
20260510123304 20 84 1.6 4.8 0.00 3.25 0.03 95 1015.0
20260510122804 20 59 1.6 4.8 0.00 3.25 0.03 95 1014.8
20260510121305 20 70 1.6 3.2 0.00 3.25 0.03 95 1014.8
20260510120805 20 92 0.0 3.2 0.00 3.25 0.03 95 1014.7
20260510115804 20 86 1.6 3.2 0.00 3.25 0.03 94 1014.4
20260510115306 20 86 0.0 1.6 0.00 3.25 0.03 94 1014.6
20260510114804 20 81 1.6 3.2 0.00 3.25 0.03 95 1014.6
20260510114304 20 80 1.6 8.0 0.00 3.25 0.03 94 1014.5
20260510113804 20 98 3.2 4.8 0.00 3.25 0.03 94 1014.4
20260510113304 19 78 1.6 3.2 0.00 3.25 0.03 95 1014.3
20260510112805 19 93 1.6 8.0 0.00 3.25 0.03 95 1014.3
20260510112306 19 68 1.6 8.0 0.00 3.25 0.03 94 1014.1
20260510111804 19 67 1.6 4.8 0.00 3.25 0.03 95 1013.9
20260510111304 19 92 3.2 8.0 0.00 3.25 0.03 94 1013.8
20260510110304 19 95 1.6 4.8 0.00 3.25 0.03 95 1013.7
20260510105805 19 51 1.6 4.8 0.00 3.25 0.03 95 1013.7
20260510104805 19 95 3.2 4.8 0.00 3.25 0.03 94 1013.5
20260510104304 19 85 0.0 3.2 0.00 3.25 0.03 94 1013.5
20260510103805 19 79 1.6 4.8 0.00 3.25 0.03 94 1013.3
20260510102804 19 100 1.6 4.8 0.00 3.25 0.03 94 1013.1
20260510102306 19 153 0.0 1.6 0.00 3.25 0.03 94 1013.2
20260510101804 19 76 0.0 1.6 0.00 3.25 0.03 94 1013.1
20260510100804 18 92 0.0 3.2 0.00 3.25 0.03 94 1012.9
20260510100304 19 139 0.0 1.6 0.00 3.25 0.03 94 1012.9
20260510095805 19 109 0.0 1.6 0.00 3.25 0.03 94 1013.0
20260510095306 19 102 0.0 1.6 0.00 3.25 0.03 94 1013.0
20260510094805 19 103 0.0 1.6 0.03 3.25 0.03 94 1012.9
20260510094304 19 103 0.0 1.6 0.03 3.25 0.03 94 1012.9
20260510093804 19 107 0.0 1.6 0.03 3.25 0.03 94 1012.9
20260510093305 19 107 0.0 1.6 0.03 3.25 0.03 94 1012.7
20260510092804 19 53 0.0 1.6 0.03 3.25 0.03 94 1012.7
20260510091804 19 84 0.0 1.6 0.03 3.25 0.03 95 1012.6
20260510091304 19 53 0.0 4.8 0.03 3.25 0.03 95 1012.7
20260510090804 19 54 1.6 4.8 0.03 3.25 0.03 95 1012.7
20260510090305 19 72 1.6 4.8 0.03 3.25 0.03 95 1012.7
20260510085804 19 108 0.0 3.2 0.03 3.25 0.03 95 1012.7
20260510085306 19 42 1.6 4.8 0.03 3.25 0.03 95 1012.6
20260510084804 19 356 1.6 4.8 0.00 3.23 0.00 94 1012.6
20260510084304 18 349 1.6 4.8 0.00 3.23 0.00 94 1012.5
20260510083805 18 351 3.2 4.8 0.00 3.23 0.00 94 1012.4
20260510083304 18 346 1.6 4.8 0.00 3.23 0.00 94 1012.3
20260510082804 18 344 3.2 4.8 0.00 3.23 0.00 94 1012.4
20260510082306 18 343 1.6 4.8 0.00 3.23 0.00 94 1012.3
20260510081804 18 357 0.0 1.6 0.00 3.23 0.00 94 1012.3
20260510081304 18 342 0.0 1.6 0.00 3.23 0.00 94 1012.3
20260510080304 18 352 1.6 3.2 0.00 3.23 0.00 94 1012.1
20260510075805 18 344 0.0 1.6 0.00 3.23 0.00 94 1012.2
20260510074804 18 342 1.6 3.2 0.00 3.23 0.00 94 1012.2
20260510073805 18 359 0.0 0.0 0.00 3.23 0.00 94 1012.0
20260510073304 18 359 0.0 0.0 0.00 3.23 0.00 94 1012.0
20260510072804 18 359 0.0 1.6 0.00 3.23 0.00 94 1011.9
20260510072306 18 358 0.0 1.6 0.00 3.23 0.00 94 1012.0
20260510071804 18 18 1.6 3.2 0.00 3.23 0.00 94 1012.0
20260510071304 18 336 0.0 1.6 0.00 3.23 0.00 94 1011.9
20260510064804 18 355 0.0 1.6 0.00 3.23 0.00 94 1012.0
20260510063304 18 356 0.0 1.6 0.00 3.23 0.00 94 1012.0
20260510062804 18 359 1.6 3.2 0.00 3.23 0.00 94 1012.0
20260510062306 18 354 1.6 3.2 0.00 3.23 0.00 94 1012.1
20260510061804 18 136 0.0 1.6 0.00 3.23 0.00 94 1012.0
20260510060804 18 138 0.0 0.0 0.00 3.23 0.00 94 1011.9
20260510060304 18 138 0.0 0.0 0.00 3.23 0.00 94 1011.9
20260510055804 18 138 0.0 0.0 0.00 3.23 0.00 94 1012.0
20260510055306 18 138 0.0 0.0 0.00 3.23 0.00 94 1011.9
20260510054804 18 136 0.0 0.0 0.00 3.23 0.00 94 1011.9
20260510054304 19 136 0.0 0.0 0.00 3.23 0.00 94 1012.0
20260510053304 19 136 0.0 0.0 0.00 3.23 0.00 94 1011.9
20260510052804 19 136 0.0 1.6 0.00 3.23 0.00 94 1011.9
20260510052306 19 136 0.0 0.0 0.00 3.23 0.00 94 1012.0
20260510051804 19 136 0.0 0.0 0.00 3.23 0.00 94 1011.9
20260510051304 19 136 0.0 1.6 0.00 3.23 0.00 94 1011.8
20260510050842 19 141 1.6 4.8 0.00 3.23 0.00 94 1011.8
20260510050304 19 134 1.6 3.2 0.00 3.23 0.00 94 1012.0
20260510045804 19 188 0.0 0.0 0.00 3.23 3.38 94 1012.2
20260510045306 19 115 0.0 1.6 0.00 3.23 3.38 94 1012.3
20260510044804 19 123 0.0 1.6 0.00 3.23 3.38 94 1012.2
20260510044304 19 123 1.6 4.8 0.00 3.23 3.38 94 1012.2
20260510043804 19 142 1.6 3.2 0.00 3.23 3.38 94 1012.3
20260510043304 19 128 1.6 8.0 0.00 3.23 3.38 94 1012.3
20260510042804 19 122 1.6 8.0 0.00 3.23 3.38 94 1012.3
20260510042306 19 124 0.0 8.0 0.00 3.23 3.38 94 1012.2
20260510041804 19 157 0.0 4.8 0.00 3.23 3.38 94 1012.2
20260510041304 19 139 1.6 4.8 0.00 3.23 3.38 94 1012.2
20260510040304 19 160 0.0 1.6 0.00 3.23 3.38 94 1012.7
20260510035803 19 131 1.6 4.8 0.00 3.23 3.38 94 1012.8
20260510035306 19 131 0.0 1.6 0.00 3.23 3.38 94 1012.8
20260510034304 19 200 0.0 3.2 0.00 3.23 3.38 94 1013.1
20260510033804 19 136 0.0 1.6 0.00 3.23 3.38 94 1013.1
20260510033304 19 134 0.0 1.6 0.00 3.23 3.38 94 1013.1
20260510032306 19 198 0.0 0.0 0.00 3.23 3.38 94 1013.3
20260510031804 19 199 0.0 0.0 0.00 3.23 3.38 94 1013.2
20260510031304 20 199 0.0 0.0 0.00 3.23 3.38 94 1013.1
20260510030804 19 204 0.0 0.0 0.00 3.23 3.38 94 1012.9
20260510030304 19 201 0.0 0.0 0.00 3.23 3.38 94 1012.9
20260510025804 19 201 0.0 0.0 0.00 3.23 3.38 94 1012.8
20260510025306 20 204 0.0 0.0 0.00 3.23 3.38 94 1012.9
20260510023804 19 205 0.0 1.6 0.00 3.23 3.38 94 1012.8
20260510023303 20 197 0.0 1.6 0.00 3.23 3.38 94 1012.7
20260510022306 19 120 0.0 1.6 0.00 3.23 3.38 94 1012.6
20260510021804 20 129 1.6 4.8 0.03 3.23 3.38 94 1012.5
20260510020804 19 195 1.6 4.8 0.08 3.23 3.38 94 1012.2
20260510020304 19 133 1.6 4.8 0.13 3.23 3.38 94 1012.1
20260510015804 19 131 3.2 4.8 0.15 3.23 3.38 94 1012.1
20260510015306 20 144 1.6 8.0 0.15 3.23 3.38 94 1012.2
20260510014803 20 150 1.6 4.8 0.15 3.23 3.38 94 1012.2
20260510014304 20 135 3.2 8.0 0.15 3.23 3.38 94 1012.1
20260510013804 20 135 1.6 9.7 0.15 3.23 3.38 94 1012.3
20260510013304 19 145 3.2 9.7 0.15 3.23 3.38 94 1012.3
20260510012804 19 147 4.8 14.5 0.18 3.23 3.38 94 1012.0
20260510012306 20 129 4.8 11.3 0.18 3.23 3.38 94 1012.0
20260510011804 20 138 6.4 11.3 0.15 3.20 3.35 94 1012.0
20260510011303 20 149 3.2 8.0 0.18 3.20 3.35 94 1012.0
20260510010804 20 138 3.2 9.7 0.13 3.15 3.30 94 1012.1
20260510010304 20 135 3.2 11.3 0.08 3.10 3.25 94 1012.1
20260510005804 20 129 1.6 8.0 0.05 3.07 3.23 94 1012.2
20260510005306 20 133 3.2 4.8 0.05 3.07 3.23 94 1012.3
20260510004803 20 135 3.2 4.8 0.05 3.07 3.23 94 1012.3
20260510004303 20 144 0.0 4.8 0.08 3.07 3.23 94 1012.3
20260510003804 20 137 0.0 3.2 0.08 3.07 3.23 94 1012.3
20260510003304 20 132 3.2 4.8 0.08 3.07 3.23 94 1012.1
20260510002804 20 131 1.6 8.0 0.08 3.05 3.20 94 1012.0
20260510002306 20 135 3.2 8.0 0.08 3.05 3.20 94 1012.0
20260510001804 20 150 3.2 4.8 0.08 3.05 3.20 94 1012.0
20260510001304 20 182 1.6 4.8 0.05 3.02 3.17 94 1012.1
20260510000804 20 131 3.2 4.8 0.05 3.02 3.17 94 1012.0
20260510000305 20 137 1.6 4.8 0.05 3.02 3.17 94 1011.9
20260509235804 20 119 1.6 4.8 0.05 3.02 3.17 94 1012.0
20260509235307 20 133 0.0 4.8 0.05 3.02 3.17 94 1012.3
20260509234804 20 141 0.0 1.6 0.05 3.02 3.17 94 1012.4
20260509234304 20 231 0.0 0.0 0.03 3.00 3.15 94 1012.4
20260509233804 20 231 0.0 0.0 0.03 3.00 3.15 94 1012.3
20260509233304 20 229 0.0 0.0 0.03 3.00 3.15 94 1012.2
20260509232804 20 233 0.0 1.6 0.00 3.00 3.12 94 1012.3
20260509232306 20 203 0.0 0.0 0.03 3.00 3.12 94 1012.3
20260509231804 20 134 0.0 0.0 0.03 3.00 3.12 94 1012.1
20260509231304 20 129 0.0 1.6 0.03 3.00 3.12 94 1011.9
20260509230758 20 181 0.0 1.6 0.03 3.00 3.12 94 1011.9
20260509230257 20 130 0.0 1.6 0.03 3.00 3.12 94 1011.8
20260509225758 20 151 0.0 4.8 0.03 3.00 3.12 94 1012.0
20260509225258 20 158 0.0 4.8 0.03 3.00 3.12 94 1011.9
20260509224758 20 223 3.2 4.8 0.03 3.00 3.12 94 1011.7
20260509223757 20 152 0.0 4.8 0.03 3.00 3.12 94 1011.8
20260509223258 20 161 0.0 3.2 0.03 3.00 3.12 94 1011.7
20260509222757 20 149 0.0 3.2 0.03 3.00 3.12 94 1011.6
20260509222257 20 147 3.2 4.8 0.00 2.97 3.10 94 1011.3
20260509221757 20 133 3.2 4.8 0.00 2.97 3.10 94 1011.2
20260509221257 20 148 3.2 4.8 0.00 2.97 3.10 94 1011.2
20260509220757 20 127 0.0 0.0 0.03 2.97 3.10 94 1011.0
20260509215757 20 134 0.0 1.6 0.03 2.97 3.10 94 1010.9
20260509215257 20 142 0.0 3.2 0.05 2.97 3.10 94 1010.8
20260509214757 20 137 3.2 9.7 0.05 2.97 3.10 94 1010.8
20260509214258 20 164 1.6 4.8 0.08 2.97 3.10 93 1011.0
20260509213757 20 164 0.0 4.8 0.08 2.97 3.10 94 1011.4
20260509212757 20 141 4.8 9.7 0.10 2.97 3.10 93 1011.2
20260509212257 20 148 4.8 9.7 0.13 2.97 3.10 93 1011.2
20260509211758 20 133 3.2 9.7 0.15 2.97 3.10 93 1011.3
20260509211257 20 143 3.2 9.7 0.15 2.97 3.10 94 1011.2
20260509210758 20 131 4.8 8.0 0.13 2.95 3.07 94 1011.2
20260509210258 20 137 3.2 8.0 0.13 2.95 3.07 94 1011.2
20260509205758 20 141 4.8 9.7 0.15 2.95 3.07 94 1011.0
20260509205257 20 129 1.6 4.8 0.15 2.92 3.05 94 1010.9
20260509204757 20 96 3.2 4.8 0.18 2.92 3.05 94 1011.1
20260509203757 20 104 1.6 4.8 0.20 2.90 3.02 94 1011.0
20260509203257 20 118 1.6 3.2 0.20 2.90 3.02 94 1011.1
20260509202757 19 121 1.6 3.2 0.20 2.87 3.00 93 1011.2
20260509202257 19 129 1.6 3.2 0.18 2.84 2.97 93 1011.6
20260509201257 19 121 0.0 1.6 0.15 2.82 2.95 93 1011.8
20260509200758 19 121 0.0 0.0 0.15 2.82 2.95 93 1012.0
20260509200258 19 121 0.0 4.8 0.18 2.82 2.95 93 1012.0
20260509195758 19 121 0.0 3.2 0.15 2.79 2.92 93 1012.1
20260509195257 19 132 1.6 4.8 0.13 2.77 2.90 93 1012.3
20260509194757 19 143 1.6 1.6 0.15 2.74 2.87 93 1012.1
20260509194257 19 97 1.6 3.2 0.23 2.74 2.87 93 1012.1
20260509193758 19 118 0.0 4.8 0.23 2.69 2.82 93 1012.4
20260509193258 19 125 0.0 3.2 0.28 2.69 2.82 93 1012.5
20260509192257 19 114 0.0 1.6 0.28 2.67 2.79 93 1012.7
20260509191257 19 102 0.0 4.8 2.03 2.67 2.79 93 1012.5
20260509190757 19 135 0.0 4.8 2.57 2.67 2.79 93 1012.5
20260509190257 19 115 1.6 4.8 2.77 2.64 2.77 93 1012.3
20260509185757 19 99 0.0 4.8 2.77 2.64 2.77 93 1012.3
20260509185257 19 131 1.6 8.0 2.77 2.64 2.77 93 1012.4
20260509184757 19 133 3.2 14.5 2.72 2.59 2.72 93 1012.4
20260509183758 19 114 1.6 4.8 2.59 2.46 2.59 93 1012.5
20260509183257 19 120 1.6 4.8 2.54 2.41 2.54 93 1012.5
20260509182257 19 136 1.6 4.8 2.57 2.41 2.57 93 1012.5
20260509181800 19 117 4.8 12.9 2.51 2.36 2.51 93 1012.7